• In Czech Republic
  • List of Countries
  • For 7 days
  • Water Temperature
  • Satellite Maps
  • Weather Map
  • Weather Widgets
  • user-avatar
    Login

    Hourly Weather Midyat

    Today, 24 February, Saturday

    Time Temperature Precipitation Wind Pressure Humidity
    00:00 +9°C° 0.5 mm 1 mps 676 mmHg 75%
    01:00 +9°C° 0.3 mm 1 mps 676 mmHg 76%
    02:00 +8°C° 0.3 mm 1 mps 676 mmHg 77%
    03:00 +8°C° 0 mm 1 mps 675 mmHg 81%
    04:00 +8°C° 0.1 mm 1 mps 675 mmHg 81%
    05:00 +7°C° 0.1 mm 1 mps 675 mmHg 82%
    06:00 +7°C° 0.1 mm 1 mps 675 mmHg 83%
    07:00 +8°C° 0.1 mm 1 mps 676 mmHg 80%
    08:00 +8°C° 0.1 mm 1 mps 676 mmHg 78%
    09:00 +9°C° 0.1 mm 1 mps 676 mmHg 75%
    10:00 +9°C° 0.3 mm 1 mps 676 mmHg 71%
    11:00 +10°C° 0.3 mm 1 mps 676 mmHg 67%
    12:00 +11°C° 0.3 mm 1 mps 676 mmHg 63%
    13:00 +11°C° 0.5 mm 1 mps 676 mmHg 61%
    14:00 +12°C° 0.5 mm 1 mps 676 mmHg 58%
    15:00 +12°C° 0.5 mm 1 mps 675 mmHg 56%
    16:00 +12°C° 0.5 mm 1 mps 675 mmHg 59%
    17:00 +11°C° 0.5 mm 1 mps 675 mmHg 62%
    18:00 +11°C° 0.5 mm 1 mps 675 mmHg 65%
    19:00 +10°C° 0.2 mm 1 mps 675 mmHg 67%
    20:00 +10°C° 0.2 mm 1 mps 675 mmHg 69%
    21:00 +8°C° 0.2 mm 0 mps 676 mmHg 70%
    22:00 +8°C° 0.1 mm 0 mps 675 mmHg 71%
    23:00 +8°C° 0.1 mm 0 mps 675 mmHg 72%

    Tomorrow, 25 February, Sunday

    Time Temperature Precipitation Wind Pressure Humidity
    00:00 +7°C° 0.1 mm 0 mps 675 mmHg 73%
    01:00 +7°C° 0.1 mm 0 mps 675 mmHg 74%
    02:00 +8°C° 0.1 mm 1 mps 675 mmHg 75%
    03:00 +7°C° 0.1 mm 1 mps 675 mmHg 76%
    04:00 +7°C° 0.1 mm 1 mps 676 mmHg 76%
    05:00 +7°C° 0.1 mm 1 mps 676 mmHg 76%
    06:00 +7°C° 0.1 mm 1 mps 676 mmHg 77%
    07:00 +7°C° 0.1 mm 2 mps 676 mmHg 74%
    08:00 +8°C° 0.1 mm 2 mps 677 mmHg 71%
    09:00 +8°C° 0.1 mm 2 mps 677 mmHg 68%
    10:00 +9°C° 0.3 mm 3 mps 677 mmHg 64%
    11:00 +10°C° 0.3 mm 4 mps 677 mmHg 60%
    12:00 +10°C° 0.3 mm 5 mps 676 mmHg 57%
    13:00 +10°C° 0.5 mm 5 mps 676 mmHg 57%
    14:00 +10°C° 0.5 mm 6 mps 676 mmHg 57%
    15:00 +10°C° 0.5 mm 6 mps 675 mmHg 57%
    16:00 +10°C° 0.7 mm 5 mps 675 mmHg 61%
    17:00 +10°C° 0.7 mm 4 mps 675 mmHg 66%
    18:00 +8°C° 0.7 mm 4 mps 675 mmHg 71%
    19:00 +8°C° 1.2 mm 4 mps 675 mmHg 75%
    20:00 +7°C° 1.2 mm 4 mps 675 mmHg 79%
    21:00 +7°C° 1.2 mm 4 mps 675 mmHg 83%
    22:00 +8°C° 0.9 mm 3 mps 675 mmHg 84%
    23:00 +7°C° 0.9 mm 3 mps 675 mmHg 85%

    Day after tomorrow, 26 February, Monday

    Time Temperature Precipitation Wind Pressure Humidity
    00:00 +7°C° 0.9 mm 3 mps 675 mmHg 86%
    01:00 +7°C° 1 mm 3 mps 675 mmHg 87%
    02:00 +7°C° 1 mm 3 mps 675 mmHg 88%
    03:00 +5°C° 1 mm 3 mps 675 mmHg 89%
    04:00 +6°C° 0.8 mm 2 mps 674 mmHg 89%
    05:00 +6°C° 0.8 mm 2 mps 674 mmHg 89%
    06:00 +6°C° 0.8 mm 2 mps 674 mmHg 89%
    07:00 +7°C° 0.3 mm 3 mps 675 mmHg 87%
    08:00 +7°C° 0.3 mm 3 mps 675 mmHg 85%
    09:00 +6°C° 0.3 mm 4 mps 675 mmHg 83%
    10:00 +7°C° 0.2 mm 4 mps 675 mmHg 81%
    11:00 +7°C° 0.2 mm 4 mps 675 mmHg 80%
    12:00 +8°C° 0.2 mm 4 mps 675 mmHg 78%
    13:00 +8°C° 0.4 mm 4 mps 675 mmHg 77%
    14:00 +8°C° 0.4 mm 4 mps 675 mmHg 76%
    15:00 +8°C° 0.4 mm 4 mps 675 mmHg 75%
    16:00 +8°C° 0.4 mm 4 mps 675 mmHg 78%
    17:00 +7°C° 0.4 mm 4 mps 675 mmHg 81%
    18:00 +7°C° 0.4 mm 4 mps 675 mmHg 83%
    19:00 +6°C° 0.2 mm 4 mps 675 mmHg 85%
    20:00 +6°C° 0.2 mm 4 mps 676 mmHg 88%
    21:00 +6°C° 0.2 mm 4 mps 676 mmHg 90%
    22:00 +5°C° 0.2 mm 3 mps 676 mmHg 90%
    23:00 +5°C° 0.2 mm 3 mps 676 mmHg 90%

    27 February, Tuesday

    Time Temperature Precipitation Wind Pressure Humidity
    00:00 +5°C° 0.2 mm 3 mps 676 mmHg 90%
    01:00 +5°C° 0.2 mm 3 mps 676 mmHg 90%
    02:00 +5°C° 0.2 mm 3 mps 676 mmHg 90%
    03:00 +6°C° 0.2 mm 2 mps 676 mmHg 90%
    04:00 +5°C° 0.2 mm 2 mps 676 mmHg 89%
    05:00 +5°C° 0.2 mm 2 mps 676 mmHg 89%
    06:00 +5°C° 0.2 mm 2 mps 676 mmHg 89%
    07:00 +5°C° 0.1 mm 3 mps 677 mmHg 86%
    08:00 +5°C° 0.1 mm 3 mps 677 mmHg 83%
    09:00 +6°C° 0.1 mm 4 mps 678 mmHg 80%
    10:00 +7°C° 0 mm 4 mps 678 mmHg 75%
    11:00 +8°C° 0 mm 4 mps 678 mmHg 70%
    12:00 +9°C° 0 mm 5 mps 678 mmHg 65%
    13:00 +9°C° 0.3 mm 5 mps 678 mmHg 66%
    14:00 +10°C° 0.3 mm 4 mps 677 mmHg 67%
    15:00 +10°C° 0.3 mm 4 mps 677 mmHg 67%
    16:00 +10°C° 0.3 mm 3 mps 677 mmHg 70%
    17:00 +9°C° 0.3 mm 2 mps 677 mmHg 73%
    18:00 +9°C° 0.3 mm 2 mps 677 mmHg 76%
    19:00 +9°C° 0.1 mm 2 mps 678 mmHg 77%
    20:00 +8°C° 0.1 mm 2 mps 678 mmHg 79%
    21:00 +8°C° 0.1 mm 2 mps 678 mmHg 80%
    22:00 +8°C° 0 mm 2 mps 679 mmHg 80%
    23:00 +7°C° 0 mm 2 mps 679 mmHg 80%

    28 February, Wednesday

    Time Temperature Precipitation Wind Pressure Humidity
    00:00 +8°C° 0 mm 1 mps 679 mmHg 80%
    01:00 +8°C° 0 mm 1 mps 679 mmHg 80%
    02:00 +8°C° 0 mm 1 mps 679 mmHg 79%
    03:00 +8°C° 0 mm 1 mps 679 mmHg 79%
    04:00 +8°C° 0 mm 1 mps 679 mmHg 79%
    05:00 +8°C° 0 mm 1 mps 679 mmHg 79%
    06:00 +8°C° 0 mm 1 mps 680 mmHg 79%
    07:00 +8°C° 0 mm 1 mps 680 mmHg 75%
    08:00 +9°C° 0 mm 1 mps 680 mmHg 71%
    09:00 +10°C° 0 mm 1 mps 681 mmHg 68%
    10:00 +11°C° 0 mm 1 mps 681 mmHg 64%
    11:00 +12°C° 0 mm 1 mps 681 mmHg 60%
    12:00 +13°C° 0 mm 1 mps 681 mmHg 56%
    13:00 +14°C° 0 mm 1 mps 681 mmHg 54%
    14:00 +14°C° 0 mm 1 mps 680 mmHg 51%
    15:00 +14°C° 0 mm 1 mps 680 mmHg 48%
    16:00 +14°C° 0 mm 1 mps 680 mmHg 52%
    17:00 +13°C° 0 mm 1 mps 680 mmHg 56%
    18:00 +12°C° 0 mm 1 mps 680 mmHg 59%
    19:00 +12°C° 0 mm 1 mps 680 mmHg 62%
    20:00 +11°C° 0 mm 1 mps 680 mmHg 64%
    21:00 +10°C° 0 mm 1 mps 680 mmHg 66%
    22:00 +10°C° 0 mm 1 mps 680 mmHg 68%
    23:00 +10°C° 0 mm 1 mps 680 mmHg 69%

    1 March, Thursday

    Time Temperature Precipitation Wind Pressure Humidity
    00:00 +9°C° 0 mm 1 mps 680 mmHg 70%
    01:00 +9°C° 0 mm 1 mps 680 mmHg 70%
    02:00 +8°C° 0 mm 1 mps 679 mmHg 71%
    03:00 +8°C° 0 mm 1 mps 679 mmHg 71%
    04:00 +8°C° 0 mm 1 mps 679 mmHg 71%
    05:00 +8°C° 0 mm 1 mps 679 mmHg 72%
    06:00 +7°C° 0 mm 1 mps 679 mmHg 72%
    07:00 +8°C° 0 mm 1 mps 680 mmHg 68%
    08:00 +9°C° 0 mm 1 mps 680 mmHg 64%
    09:00 +10°C° 0 mm 1 mps 680 mmHg 60%
    10:00 +11°C° 0 mm 1 mps 680 mmHg 56%
    11:00 +12°C° 0 mm 1 mps 680 mmHg 51%
    12:00 +13°C° 0 mm 1 mps 680 mmHg 47%
    13:00 +14°C° 0 mm 2 mps 680 mmHg 45%
    14:00 +14°C° 0 mm 2 mps 680 mmHg 44%
    15:00 +14°C° 0 mm 3 mps 680 mmHg 43%
    16:00 +13°C° 0 mm 3 mps 680 mmHg 47%
    17:00 +13°C° 0 mm 2 mps 679 mmHg 52%
    18:00 +12°C° 0 mm 2 mps 679 mmHg 56%
    19:00 +12°C° 0 mm 2 mps 680 mmHg 59%
    20:00 +10°C° 0 mm 2 mps 680 mmHg 61%
    21:00 +10°C° 0 mm 1 mps 680 mmHg 63%
    22:00 +10°C° 0 mm 1 mps 680 mmHg 64%
    23:00 +10°C° 0 mm 1 mps 680 mmHg 65%
    Show more